Weather History for Greenville, AL

Change the Weather History Date:

Thursday, February 14, 2013

  Actual Average Record
Temperature  
Mean Temperature 47 °F -  
Max Temperature 57 °F 64 °F 82 °F (1962)
Min Temperature 36 °F 37 °F 17 °F (1971)
Degree Days  
Heating Degree Days 18    
Moisture  
Dew Point 36 °F    
Average Humidity 78    
Maximum Humidity 93    
Minimum Humidity 42    
Precipitation  
Precipitation 0.01 in - - ()
Sea Level Pressure  
Sea Level Pressure 30.08 in    
Wind  
Wind Speed 3 mph (NNW)    
Max Wind Speed 7 mph    
Max Gust Speed -    
Visibility 9 miles    
Events      
Averages and records for this station are not official NWS values.
T = Trace of Precipitation, MM = Missing Value Source: NWS Daily Summary

Daily Weather History Graph

Daily Weather History Graph

Search for Another Location

Airport:

Trip Planner

Search our weather history database for the weather conditions in past years. The results will help you decide how hot, cold, wet, or windy it might be!

Date:

Astronomy

Feb. 14, 2013 Rise Set
Actual Time 6:29 AM CST 5:32 PM CST
Civil Twilight 6:04 AM CST 5:57 PM CST
Nautical Twilight 5:35 AM CST 6:26 PM CST
Astronomical Twilight 5:07 AM CST 6:54 PM CST
Moon 8:51 AM CST (2/14) 10:12 PM CST (2/14)
Length of Visible Light 11h 53m
Length of Day
11h 03m
Waxing Crescent, 22% of the Moon is Illuminated
Feb 14
Waxing Crescent
Feb 17
First Quarter
Feb 25
Full
Mar 4
Last Quarter
Mar 11
New

Hourly Weather History & Observations

Time (CST) Temp. Windchill Dew Point Humidity Pressure Visibility Wind Dir Wind Speed Gust Speed Precip Events Conditions
12:56 AM 37.9 °F 35.5 °F 36.0 °F 93% 30.04 in 10.0 mi NW 3.5 mph - N/A   Clear
1:56 AM 37.0 °F - 35.1 °F 93% 30.04 in 10.0 mi Calm Calm - N/A   Clear
2:56 AM 37.0 °F 34.5 °F 35.1 °F 93% 30.04 in 10.0 mi NNW 3.5 mph - N/A   Clear
3:56 AM 37.0 °F 32.4 °F 35.1 °F 93% 30.05 in 9.0 mi NNW 5.8 mph - N/A   Clear
4:56 AM 37.0 °F 33.3 °F 35.1 °F 93% 30.06 in 7.0 mi North 4.6 mph - N/A   Clear
5:56 AM 37.0 °F 33.3 °F 35.1 °F 93% 30.06 in 8.0 mi North 4.6 mph - N/A   Clear
6:56 AM 37.0 °F - 35.1 °F 93% 30.08 in 5.0 mi Calm Calm - N/A   Clear
7:56 AM 37.9 °F - 36.0 °F 93% 30.11 in 6.0 mi Calm Calm - 0.01 in   Clear
8:56 AM 42.1 °F - 37.9 °F 85% 30.14 in 8.0 mi Calm Calm - N/A   Clear
9:56 AM 46.0 °F 43.9 °F 37.9 °F 73% 30.13 in 10.0 mi NNE 4.6 mph - N/A   Clear
10:56 AM 48.0 °F - 37.0 °F 66% 30.13 in 10.0 mi WNW 3.5 mph - N/A   Clear
11:56 AM 50.0 °F - 37.0 °F 61% 30.11 in 10.0 mi NNW 6.9 mph - N/A   Clear
12:56 PM 53.1 °F - 37.9 °F 57% 30.08 in 10.0 mi West 5.8 mph - N/A   Clear
1:56 PM 55.9 °F - 34.0 °F 44% 30.05 in 10.0 mi NNW 6.9 mph - N/A   Clear
2:56 PM 55.9 °F - 35.1 °F 45% 30.04 in 10.0 mi Variable 4.6 mph - N/A   Clear
3:56 PM 57.0 °F - 34.0 °F 42% 30.04 in 10.0 mi WNW 3.5 mph - N/A   Clear
4:56 PM 55.9 °F - 35.1 °F 45% 30.05 in 10.0 mi NNW 5.8 mph - N/A   Clear
5:56 PM 48.9 °F - 39.9 °F 71% 30.06 in 10.0 mi Calm Calm - N/A   Clear
6:56 PM 46.0 °F - 39.9 °F 79% 30.07 in 10.0 mi Calm Calm - N/A   Clear
7:56 PM 42.1 °F - 39.0 °F 89% 30.09 in 10.0 mi Calm Calm - N/A   Clear
8:56 PM 41.0 °F - 37.9 °F 89% 30.10 in 10.0 mi Calm Calm - N/A   Clear
9:56 PM 39.0 °F 36.8 °F 36.0 °F 89% 30.10 in 10.0 mi North 3.5 mph - N/A   Clear
10:56 PM 37.9 °F 34.4 °F 35.1 °F 89% 30.09 in 10.0 mi North 4.6 mph - N/A   Clear
11:56 PM 36.0 °F - 34.0 °F 93% 30.09 in 10.0 mi Calm Calm - N/A   Clear